Tracking 31027 objects as of 19-Jul-2025
HD Live streaming from Space Station
objects crossing your sky now

EDUSAT

Track EDUSAT now!
10-day predictions
EDUSAT is classified as:


NORAD ID: 37788
Int'l Code: 2011-044A
Perigee: 625.0 km
Apogee: 676.0 km
Inclination: 98.3 °
Period: 97.6 minutes
Semi major axis: 7021 km
RCS: 0.1421 m2 (medium)
Launch date: August 17, 2011
Source: Italy (IT)
Launch site: Orenburg, Russia (OREN)

EduSat is a microsatellite built by the University of Rome.
Your satellite tracking list
COSMOS 2251 DEB
Track 1 satellite(s)




NASA's NSSDC Master Catalog

Two Line Element Set (TLE):
1 37788U 11044A   25199.25882907  .00000694  00000-0  10890-3 0  9990
2 37788  98.3078  83.4487 0036292 105.8818   9.0971 14.75568361747265
Source of the keplerian elements: AFSPC